Terminal Aerodrome Forecast
Issued by NWS Brownsville, TX

Home | Current Version | Previous Version | Text Only | Print | Product List | Glossary On
Versions: 1 2 3 4 5 6 7 8 9 10 11 12 13 14 15 16 17 18 19 20 21
857
FTUS44 KBRO 230432 AAB
TAFHRL
TAF AMD
KHRL 230432Z 2305/2324 03005KT 1SM BR OVC003
      TEMPO 2309/2313 1/2SM FG VV002
     FM231500 16010KT 4SM BR BKN007
     FM231700 16016G22KT P6SM BKN015=

USA.gov is the U.S. government's official web portal to all federal, state and local government web resources and services.